CST,Max TemperatureF,Mean TemperatureF,Min TemperatureF,Max Dew PointF,MeanDew PointF,Min DewpointF,Max Humidity, Mean Humidity, Min Humidity, Max Sea Level PressureIn, Mean Sea Level PressureIn, Min Sea Level PressureIn, Max VisibilityMiles, Mean VisibilityMiles, Min VisibilityMiles, Max Wind SpeedMPH, Mean Wind SpeedMPH, Max Gust SpeedMPH,PrecipitationIn, CloudCover, Events, WindDirDegrees
2012-2-1,74,68,61,70,65,59,97,92,87,30.16,30.11,30.05,10,4,0,14,5,20,0.49,7,Fog-Rain-Thunderstorm,187
2012-2-2,74,68,61,67,63,59,97,85,73,30.18,30.11,30.05,10,6,0,18,6,22,0.10,8,Fog-Rain,91
2012-2-3,78,74,69,70,68,66,90,83,76,30.11,30.06,30.00,10,9,4,23,12,29,0.24,8,Rain,156
2012-2-4,73,66,59,70,63,55,97,91,84,30.17,30.09,30.01,10,6,1,21,8,25,1.83,8,Rain-Thunderstorm,88
2012-2-5,59,54,48,53,44,40,87,79,71,30.30,30.23,30.16,10,10,10,22,12,26,0.04,7,Rain,4
2012-2-6,63,54,45,44,41,38,80,66,51,30.32,30.25,30.19,10,10,10,15,8,18,0.00,1,,15
2012-2-7,66,57,48,49,45,43,80,64,48,30.29,30.22,30.16,10,10,10,13,6,16,0.00,4,,20
2012-2-8,66,58,49,45,41,39,77,59,40,30.40,30.33,30.28,10,10,10,21,10,25,0.00,1,,15
2012-2-9,61,54,46,49,43,39,83,67,51,30.35,30.28,30.21,10,10,8,14,7,17,0.02,2,Rain,62
2012-2-10,57,53,48,52,49,44,89,83,77,30.27,30.14,30.06,10,7,1,14,6,20,0.86,7,Rain,6
2012-2-11,54,47,39,45,30,21,86,59,32,30.58,30.39,30.25,10,10,7,23,13,31,0.00,1,,11
2012-2-12,49,41,32,29,23,19,59,45,31,30.61,30.50,30.35,10,10,10,23,12,29,0.00,1,,65
2012-2-13,63,54,44,61,51,31,93,73,53,30.30,29.97,29.84,10,6,0,23,10,30,0.80,8,Fog-Rain,161
2012-2-14,63,57,50,55,50,46,93,80,67,30.08,30.01,29.93,10,7,0,12,5,13,0.00,5,Fog,38
2012-2-15,74,62,50,68,62,48,93,83,73,30.05,30.00,29.89,10,6,0,22,10,28,0.04,8,Fog-Rain,156
2012-2-16,72,66,60,66,60,53,100,81,61,30.19,30.10,30.02,10,6,0,14,8,17,0.00,5,Fog,13
2012-2-17,69,62,55,61,55,50,93,80,66,30.13,30.06,29.96,10,10,5,15,9,18,0.08,7,Rain,72
2012-2-18,62,60,58,59,56,54,93,89,84,29.94,29.80,29.71,10,6,0,25,9,36,3.51,8,Fog-Rain-Thunderstorm,37
2012-2-19,65,58,50,54,46,43,86,69,52,30.14,30.02,29.84,10,10,10,23,10,31,0.00,6,,354
2012-2-20,62,54,46,54,48,42,86,75,64,30.21,30.15,30.10,10,10,10,17,7,21,0.00,4,,113
2012-2-21,75,64,52,61,55,51,93,75,57,30.21,30.14,30.03,10,5,0,12,3,16,0.00,4,Fog,103
2012-2-22,78,71,63,67,65,61,93,80,67,30.03,29.89,29.74,10,5,0,22,9,30,T,7,Fog,225
2012-2-23,75,72,69,68,67,66,90,82,74,29.75,29.70,29.62,8,5,2,23,13,33,T,8,Rain,225
2012-2-24,73,65,56,70,40,21,90,55,20,30.35,30.03,29.71,10,9,3,29,13,40,T,4,Rain,348
2012-2-25,60,55,49,42,29,22,74,49,24,30.42,30.35,30.30,10,10,10,23,9,29,0.00,3,,52
2012-2-26,68,56,44,52,46,38,86,65,44,30.30,30.23,30.17,10,10,10,15,6,23,0.00,3,,101
2012-2-27,70,64,58,59,57,53,93,80,66,30.31,30.24,30.19,10,8,1,22,12,26,0.01,8,Rain,57
2012-2-28,76,69,62,70,65,59,97,90,82,30.22,30.14,30.07,10,3,0,15,8,22,0.01,8,Fog-Rain,148
2012-2-29,81,75,69,70,67,66,93,78,62,30.11,30.04,29.98,10,7,2,17,9,24,0.00,7,,190